アラン彗星

50P/Arend (2024)

English version
Home page
Updated on March 26, 2025

---------------------------------------------------------------------

・ プロフィール

・ 写真集

・ 軌道要素

Epoch 2024 Oct. 17.0 TT = JDT 2460600.5
T 2024 May 12.72313 TT                                  Rudenko
q   1.9221633            (2000.0)            P               Q
n   0.11919396     Peri.   49.33567     +0.70986416     -0.70379579
a   4.0891515      Node   355.15276     +0.50605025     +0.53692923
e   0.5299359      Incl.   19.09801     +0.48990409     +0.46516502
P   8.27
>From 1761 observations 1999 Aug. 3-2024 Aug. 29, mean residual 0".7.
     Nongravitational parameters A1 = +0.20, A2 = -0.0114.

・ 光度変化

        m1 =  8.6 + 5 logΔ + 22.0 log r  [ ,0]  (              〜2024年 5月12日)
        m1 = 12.0 + 5 logΔ + 10.0 log r  [0, ]  (2024年 5月12日〜              )

---------------------------------------------------------------------

軌道要素はM.P.E.C. 2024-R10に掲載されたものです。
光度グラフはComet for Windowsで作成したものです。

---------------------------------------------------------------------

Copyright(C) Seiichi Yoshida (comet@aerith.net). All rights reserved.